User: anonymous   Login
Location: Unspecified
(0.0000°N, 0.0000°E)
Time: 21:56:17
(UTC+00:00)
Language:

AE1C - Orbit

View from above orbital plane
View from above orbital plane
View from above satellite
View from above satellite

Ground track
Ground track

The orbit is defined by the following mean orbital elements,

1 62649U          26145.19423907 +.00000000 +00000-0 +73208-3 0 00006
2 62649  97.4027 232.3329 0001729  75.0989 285.0451 15.44036375    02
Epoch (UTC): 25 May 2026 04:39:42
Eccentricity: 0.0001729
inclination: 97.4027°
perigee height: 433 km
apogee height: 435 km
right ascension of ascending node: 232.3329°
argument of perigee: 75.0989°
revolutions per day: 15.44036375
mean anomaly at epoch: 285.0451°

The dashed part of the orbit path shows where the satellite is in the earth's shadow,  

DLR